DMSP 5D-2 F13 DEB, 40409

Orbit data source: Space-Track

DMSP 5D-2 F13 DEB, 40409 is space debris in SSO originally from a launch on Fri, 24 Mar 1995 UTC launched from the Air Force Western Test Range (AFWTR). Debris objects in space refer to the collection of defunct objects orbiting the Earth. Examples of debris include non-operational satellites, rocket bodies, and fragments generated from explosions, collisions, or faulty payload assembly.

Loading next visibility...
Identifier
40409, 1995-015W
Orbit
SSO
Country
Flag of USUS
Related business
Manufacturer
Unknown
Mission
Spacecraft
Bus & Motor
Unknown
Mass
Unknown
Launch date (UTC)
1995-03-24 (31 years ago)
Launch vehicle
Unknown
Launch site
Air Force Western Test Range (AFWTR)
Object type
Payload
Rocket body
Debris
Shape & HBR
Unknown shape, 0.1 m
Radar Cross Section
Small (<0.1 m²)

Expand to show TLE details & history
Last TLE update: 11 hours ago

TLE from 11 hours ago
0 DMSP 5D-2 F13 DEB
1 40409U 95015W   26118.78647784  .00002672  00000-0  11181-2 0  9997
2 40409  98.7374 143.8689 0002411 169.9811 190.1418 14.26907871578716
Epoch: 2026-04-28T18:52Z
TLE epoch observation values (Epoch: 2026-04-28T18:52:31.685Z)
Latitude
0.00002°
Longitude
3.98009°
Altitude
806.713 km
Speed
7.449 km/s
True Right ascension
09h 35m 28s
True Declination
0° 00' 00"
Sunlit
Object was in daylight at epoch
Visualization orbit readout
Latitude
Unknown
Longitude
Unknown
Altitude
Unknown
Speed
Unknown
Apparent Right ascension
Unknown
Apparent Declination
Unknown
Sunlit
N/A
Visualization observer readout
Local Sidereal Time
13:05:09
Azimuth
Unknown
Elevation
Unknown
Doppler factor
Unknown
Orbital elements
Apogee altitude
800.966 km
Perigee altitude
797.505 km
Semi-major axis
7,177.373 km
Eccentricity
0.00024
Inclination
98.7374°
RAAN
143.8689°
Arg. of periapsis
169.9811°
True anomaly
190.13694°
Mean anomaly
190.1418°
Eccentric anomaly
190.13937°
Mean motion
3.5694 °/min
Orbital period
100.86 mins
BSTAR
0.0011181
Loading maneuver chart data...
Computing Atmospheric mass density...

Documentation

Showing up to 5 results
|